EW1549 Weather Reports


Display with metric or nautical units.
time (UTC)temp
F
wind
direction
speed
MPH
gust
MPH
rain 1hr
in
rain 24hr
in
rain mn
in
humidity
%
barometer
mb
20260902040026 0 265 7.0 12.0 0.00 0.00 0.00 1016.7
20260902034526 0 201 3.0 10.0 0.00 0.00 0.00 1017.0
20260902033017 0 259 1.0 6.0 0.00 0.00 0.00 1017.1
20260902031516 0 342 5.0 8.0 0.00 0.00 0.00 1017.1
20260902030007 0 219 0.0 6.0 0.00 0.00 0.00 1017.2
20260902024503 0 228 1.0 8.0 0.00 0.00 0.00 1017.2
20260902023103 0 250 4.0 16.0 0.00 0.00 0.00 1017.1
20260902021555 0 214 1.0 15.0 0.00 0.00 0.00 1017.2
20260902020056 0 226 7.0 12.0 0.00 0.00 0.00 1017.2
20260902014543 0 231 6.0 14.0 0.00 0.00 0.00 1017.4
20260902013039 0 230 3.0 9.0 0.00 0.00 0.00 1017.6
20260902011532 0 221 7.0 10.0 0.00 0.00 0.00 1017.7
20260902010033 0 258 3.0 10.0 0.00 0.00 0.00 1017.8
20260902004520 0 233 8.0 13.0 0.00 0.00 0.00 1017.8
20260902003018 0 241 6.0 10.0 0.00 0.00 0.00 1018.0
20260902001517 0 258 0.0 4.0 0.00 0.00 0.00 1017.9
20260902000018 0 271 2.0 9.0 0.00 0.00 0.00 1018.0
20260901234503 0 308 2.0 10.0 0.00 0.00 0.00 1018.2
20260901233104 0 274 3.0 17.0 0.00 0.00 0.00 1018.4
20260901231557 0 253 2.0 9.0 0.00 0.00 0.00 1018.4
20260901230045 0 36 4.0 11.0 0.00 0.00 0.00 1018.4
20260901224545 0 260 0.0 11.0 0.00 0.00 0.00 1018.3
20260901223046 0 19 7.0 14.0 0.00 0.00 0.00 1018.5
20260901221543 0 243 5.0 9.0 0.00 0.00 0.00 1018.6
20260901220107 0 54 6.0 11.0 0.00 0.00 0.00 1018.5
20260901214542 0 231 1.0 6.0 0.00 0.00 0.00 1018.7
20260901213041 0 231 3.0 10.0 0.00 0.00 0.00 1018.6
20260901211543 0 303 2.0 14.0 0.00 0.00 0.00 1018.4
20260901210046 0 11 3.0 10.0 0.00 0.00 0.00 1018.3
20260901204539 0 7 2.0 20.0 0.00 0.00 0.00 1018.0
20260901203039 0 36 4.0 19.0 0.00 0.00 0.00 1017.8
20260901201538 0 122 1.0 18.0 0.00 0.00 0.00 1017.6
20260901200028 0 59 7.0 20.0 0.00 0.00 0.00 1017.4
20260901194523 0 17 12.0 21.0 0.00 0.00 0.00 1017.2
20260901193022 0 360 12.0 19.0 0.00 0.00 0.00 1017.0
20260901191514 0 46 7.0 19.0 0.00 0.00 0.00 1017.0
20260901190010 0 46 11.0 16.0 0.00 0.00 0.00 1017.0
20260901184510 0 14 7.0 19.0 0.00 0.00 0.00 1016.9
20260901183003 0 9 13.0 19.0 0.00 0.00 0.00 1016.7
20260901181601 0 26 11.0 24.0 0.00 0.00 0.00 1016.9
20260901180053 0 63 11.0 21.0 0.00 0.00 0.00 1016.9
20260901174549 0 36 8.0 25.0 0.00 0.00 0.00 1016.9
20260901173046 0 354 6.0 29.0 0.00 0.00 0.00 1016.9
20260901171549 0 41 11.0 23.0 0.00 0.00 0.00 1016.9
20260901170100 0 76 12.0 31.0 0.00 0.00 0.00 1016.8
20260901164537 0 330 10.0 29.0 0.00 0.00 0.00 1016.7
20260901163038 0 41 13.0 23.0 0.00 0.00 0.00 1016.7
20260901161525 0 28 12.0 23.0 0.00 0.00 0.00 1016.7
20260901160020 0 336 10.0 20.0 0.00 0.00 0.00 1016.7
20260901154515 0 352 8.0 19.0 0.00 0.00 0.00 1016.8
20260901153011 0 50 9.0 18.0 0.00 0.00 0.00 1016.9
20260901151510 0 46 1.0 20.0 0.00 0.00 0.00 1017.1
20260901150004 0 36 6.0 21.0 0.00 0.00 0.00 1017.2
20260901144502 0 46 10.0 18.0 0.00 0.00 0.00 1017.5
20260901143101 0 6 11.0 22.0 0.00 0.00 0.00 1017.6
20260901141600 0 52 10.0 20.0 0.00 0.00 0.00 1017.6
20260901140108 0 14 7.0 21.0 0.00 0.00 0.00 1017.9
20260901134557 0 55 12.0 20.0 0.00 0.00 0.00 1017.8
20260901133032 0 354 9.0 18.0 0.00 0.00 0.00 1018.0
20260901131539 0 24 11.0 18.0 0.00 0.00 0.00 1018.2
20260901130024 0 46 9.0 17.0 0.00 0.00 0.00 1018.4
20260901124521 0 36 10.0 15.0 0.00 0.00 0.00 1018.6
20260901123030 0 59 2.0 22.0 0.00 0.00 0.00 1018.6
20260901121520 0 3 13.0 22.0 0.00 0.00 0.00 1018.6
20260901120019 0 20 7.0 22.0 0.00 0.00 0.00 1018.8
20260901114535 0 46 6.0 31.0 0.00 0.00 0.00 1018.8
20260901113021 0 17 9.0 19.0 0.00 0.00 0.00 1018.9
20260901111515 0 46 10.0 16.0 0.00 0.00 0.00 1019.0
20260901110013 0 18 10.0 18.0 0.00 0.00 0.00 1019.0
20260901104513 0 19 7.0 13.0 0.00 0.00 0.00 1018.9
20260901103016 0 54 6.0 17.0 0.00 0.00 0.00 1018.9
20260901101505 0 36 8.0 13.0 0.00 0.00 0.00 1018.9
20260901100104 0 54 4.0 10.0 0.00 0.00 0.00 1018.7
20260901094557 0 329 0.0 7.0 0.00 0.00 0.00 1018.6
20260901093052 0 237 3.0 8.0 0.00 0.00 0.00 1018.7
20260901091547 0 233 0.0 6.0 0.00 0.00 0.00 1018.6
20260901090043 0 245 3.0 8.0 0.00 0.00 0.00 1018.5
20260901084553 0 236 2.0 6.0 0.00 0.00 0.00 1018.5
20260901083037 0 266 4.0 7.0 0.00 0.00 0.00 1018.4
20260901081531 0 231 5.0 8.0 0.00 0.00 0.00 1018.2
20260901080028 0 234 3.0 9.0 0.00 0.00 0.00 1018.1
20260901074523 0 213 5.0 10.0 0.00 0.00 0.00 1017.9
20260901073018 0 237 7.0 10.0 0.00 0.00 0.00 1017.7
20260901071514 0 228 6.0 10.0 0.00 0.00 0.00 1017.7
20260901070009 0 239 3.0 8.0 0.00 0.00 0.00 1017.6
20260901064507 0 237 6.0 9.0 0.00 0.00 0.00 1017.3
20260901063115 0 243 0.0 6.0 0.00 0.00 0.00 1017.3
20260901061556 0 239 3.0 6.0 0.00 0.00 0.00 1017.0
20260901060051 0 252 2.0 6.0 0.00 0.00 0.00 1017.0
20260901054547 0 234 8.0 15.0 0.00 0.00 0.00 1017.0
20260901053051 0 236 6.0 10.0 0.00 0.00 0.00 1017.0
20260901051539 0 230 4.0 8.0 0.00 0.00 0.00 1016.9
20260901050034 0 226 3.0 8.0 0.00 0.00 0.00 1016.9
20260901044535 0 235 5.0 8.0 0.00 0.00 0.00 1016.9
20260901043026 0 233 5.0 8.0 0.00 0.00 0.00 1017.1
20260901041520 0 253 5.0 8.0 0.00 0.00 0.00 1016.9